Regional Weather Roundup
Issued by NWS

Home | Current Version | Previous Version | Graphics & Text | Print | Product List | Glossary On
Versions: 1 2 3 4 5 6 7 8 9 10 11 12 13 14 15 16 17 18 19 20 21 22 23 24 25 26 27 28 29 30 31 32 33 34 35 36 37 38 39 40 41 42 43 44 45 46 47 48 49 50
000
ASUS45 KPSR 300410
RWRAZ

ARIZONA HOURLY REGIONAL WEATHER ROUNDUP
NATIONAL WEATHER SERVICE PHOENIX AZ
900 PM MST SAT AUG 29 2015

NOTE: FAIR INDICATES FEW OR NO CLOUDS BELOW 12,000 FEET WITH NO
SIGNIFICANT WEATHER AND/OR OBSTRUCTIONS TO VISIBILITY.

AZZ001>003-036-300500-
NORTHWEST ARIZONA

CITY           SKY/WX    TMP DP  RH WIND       PRES   REMARKS
BULLHEAD CITY  CLEAR    102  46  15 SE5       29.70R
KINGMAN        PTCLDY    85  48  27 S5        29.97R
$$

AZZ004>008-015-016-018-300500-
NORTH CENTRAL ARIZONA

CITY           SKY/WX    TMP DP  RH WIND       PRES   REMARKS
GRAND CANYON   PTCLDY    60  46  59 CALM      30.28R
WILLIAMS       PTCLDY    63  50  63 S6        30.33S
PRESCOTT       MOCLDY    69  60  73 S8        30.15R
FLAGSTAFF      PTCLDY    60  50  69 CALM      30.31S
PAYSON         CLOUDY    75  54  46 NE5       30.18R
PAGE           PTCLDY    88  43  20 SW6       30.02R
$$

AZZ009>014-017-300500-
NORTHEAST ARIZONA

CITY           SKY/WX    TMP DP  RH WIND       PRES   REMARKS
WINSLOW        PTCLDY    78  52  40 SE7       30.15R
SAINT JOHNS    PTCLDY    74  47  38 VRB7      30.24R
WINDOW ROCK    CLOUDY    72  45  37 S6        30.30R
SHOW LOW       PTCLDY    66  46  48 N5        30.30R
$$

AZZ023-300500-
GREATER PHOENIX AREA

CITY           SKY/WX    TMP DP  RH WIND       PRES   REMARKS
PHOENIX        TSTM      82  70  66 SE13G29   29.85R
BUCKEYE        MOCLDY    97  57  26 NE5       29.79R
LUKE AFB       MOCLDY    97  59  27 SE25G31   29.82R
DEER VALLEY    MOCLDY    94  58  29 SE20G28   29.85R
SCOTTSDALE     TSTM      83  66  56 E14       29.90R
MESA-GATEWAY   CLOUDY    84  70  61 S9        29.90R
CHANDLER       TSTM      86  64  48 E16       29.87R
$$

AZZ027-028-300500-
SOUTHWEST MARICOPA COUNTY AND PINAL COUNTY

CITY           SKY/WX    TMP DP  RH WIND       PRES   REMARKS
CASA GRANDE    CLOUDY    90  57  33 SE10      29.88R
GILA BEND      FAIR      99  58  26 S7        29.77R
$$

AZZ503-504-507>509-300500-
SOUTHEAST ARIZONA

CITY           SKY/WX    TMP DP  RH WIND       PRES   REMARKS
TUCSON         CLOUDY    83  64  52 N6        30.03R
DAVIS-MONTHAN  CLOUDY    83  63  51 N8        30.01R
NOGALES        MOCLDY    75  61  61 SE6       30.09R
SIERRA VISTA   CLOUDY    74  59  58 N6        30.18R
DOUGLAS          N/A    N/A N/A N/A MISG      30.13R
SAFFORD        PTCLDY    80  58  46 E10       30.04R
$$

AZZ020-021-025-026-031-300500-
SOUTHWEST ARIZONA

CITY           SKY/WX    TMP DP  RH WIND       PRES   REMARKS
YUMA           PTCLDY   100  61  27 S9        29.71R HX 101
$$

CAZ031-033-041-043-047-048-061-300500-
SOUTHERN CALIFORNIA

CITY           SKY/WX    TMP DP  RH WIND       PRES   REMARKS
DOWNTOWN L.A.  CLEAR     78  62  57 CALM      29.83R
L.A. AIRPORT   PTCLDY    76  66  71 W17       29.84R
SAN DIEGO      PTCLDY    76  67  73 W5        29.88R
BURBANK        CLEAR     84  63  49 SE6       29.85R
ONTARIO        PTCLDY    83  55  38 SW6       29.88R
RIVERSIDE      PTCLDY    85  59  41 NW5       29.87R
PALM SPRINGS   CLEAR    101  48  16 NW7       29.74R
EL CENTRO NAS  CLEAR    100  49  17 SW14      29.71R
IMPERIAL       CLEAR    101  51  18 W13       29.68R
BLYTHE         CLEAR    104  55  19 SW7       29.70R HX 102
NEEDLES        CLEAR    106  47  13 SW9       29.72R HX 102
$$

NVZ020-UTZ003-300500-
SOUTHERN NEVADA-UTAH

CITY           SKY/WX    TMP DP  RH WIND       PRES   REMARKS
LAS VEGAS      PTCLDY    98  41  14 SW8       29.77R
SALT LAKE CITY MOCLDY    86  44  23 S16       29.88R
$$

NMZ009-TXZ055-300500-
NEW MEXICO-WEST TEXAS

CITY           SKY/WX    TMP DP  RH WIND       PRES   REMARKS
ALBUQUERQUE    PTCLDY    77  46  33 E13       30.22R
EL PASO        PTCLDY    84  54  35 E13       30.11R
$$


........................KEY........................
SKY/WX - SKY CONDITION/WEATHER
TMP    - TEMPERATURE IN FAHRENHEIT
DP     - DEW POINT IN FAHRENHEIT
RH     - RELATIVE HUMIDITY IN PERCENT
WIND   - DIRECTION AND SPEED IN MILES PER HOUR (MPH)
VRB    - VARIABLE WIND DIRECTION
PRES   - MEAN SEA LEVEL PRESSURE IN INCHES OF MERCURY
         F - FALLING PRESSURE   R - RISING PRESSURE
         S - STEADY PRESSURE
VSB    - VISIBILITY IN MILES
HX     - HEAT INDEX IN FAHRENHEIT
WCI    - WIND CHILL INDEX IN FAHRENHEIT
TC     - TEMPERATURE IN CELSIUS WHICH IS ALSO KNOWN AS
         TEMPERATURE IN CENTIGRADE
AFB    - AIR FORCE BASE
         LUKE AFB IS LUKE AIR FORCE BASE
         DAVIS-MONTHAN IS DAVIS-MONTHAN AIR FORCE BASE
NAS    - NAVAL AIR STATION
         EL CENTRO NAS IS EL CENTRO NAVAL AIR STATION
N/A    - NOT AVAILABLE




USA.gov is the U.S. government's official web portal to all federal, state and local government web resources and services.